Find WHDW 17-08

NORAD ID: 67243 Int'l Des: 2025-311 Owner: ZXW Country: CN Constellation: xingwang operational
LEOCIRCULAR

Current View

Loading 3D Globe...

About WHDW 17-08

Description loading...

Upcoming Passes

Passes for default location (London). Set your location on the main map for personalized predictions.

Altitude History

Loading altitude history...

Two-Line Element Set

1 67243U 25311H 26145.83338922 -.00000092 00000-0 67949-4 0 9991
2 67243 50.0004 196.0685 0001033 248.4000 111.6762 13.29322673 20366
Epoch: May 25, 2026 • Age: 17 hours

Current Status

Altitude 1152.8 km
Velocity 7.28 km/s
Sub-Earth Point 37.51°N, 161.82°E
Launch Date Dec 25, 2025
Age 0.4 years
Type other

Technical Details

Classification Payload
Mass 700.00 kg
Dry Mass 700.00 kg
Total Mass 700.00 kg
Length 3.00 m
Diameter 1.00 m
Span 10.00 m
Shape Box + 2 Pan
Manufacturer CAST
Bus Type Xingwang C
Phase Status In Orbit
Owner/State ZXW/CN

Most Searched